Data No,UTC Date,UTC Time,Latitude,Longitude,Course(deg),Temp(degC),Sal(psu)
486,2023/9/14,8:05,42-36.99N,141-37.13E,211,22.51,
487,2023/9/14,8:06,42-36.76N,141-36.95E,206,22.586,
488,2023/9/14,8:07,42-36.49N,141-36.92E,174,22.606,
489,2023/9/14,8:08,42-36.25N,141-37.08E,145,22.745,
490,2023/9/14,8:09,42-36.03N,141-37.32E,139,22.862,
491,2023/9/14,8:10,42-35.81N,141-37.60E,137,22.887,
492,2023/9/14,8:11,42-35.59N,141-37.87E,138,22.94,
493,2023/9/14,8:12,42-35.35N,141-38.14E,139,22.972,
494,2023/9/14,8:13,42-35.11N,141-38.42E,139,23.005,
495,2023/9/14,8:14,42-34.86N,141-38.71E,140,23.014,
496,2023/9/14,8:15,42-34.61N,141-38.98E,140,22.983,
497,2023/9/14,8:16,42-34.37N,141-39.25E,140,22.979,
498,2023/9/14,8:17,42-34.11N,141-39.54E,140,22.99,
499,2023/9/14,8:18,42-33.85N,141-39.82E,140,23.016,
500,2023/9/14,8:19,42-33.60N,141-40.10E,140,23.037,
501,2023/9/14,8:20,42-33.33N,141-40.41E,140,23.049,
502,2023/9/14,8:21,42-33.08N,141-40.68E,140,23.067,
503,2023/9/14,8:22,42-32.81N,141-40.98E,140,23.03,
504,2023/9/14,8:23,42-32.55N,141-41.27E,140,23.012,
505,2023/9/14,8:24,42-32.28N,141-41.57E,140,23.003,
506,2023/9/14,8:25,42-32.02N,141-41.86E,140,22.978,
507,2023/9/14,8:26,42-31.75N,141-42.15E,140,22.974,
508,2023/9/14,8:27,42-31.48N,141-42.46E,140,22.965,
509,2023/9/14,8:28,42-31.21N,141-42.76E,140,22.951,
510,2023/9/14,8:29,42-30.94N,141-43.06E,141,22.923,
511,2023/9/14,8:30,42-30.69N,141-43.40E,130,22.885,
512,2023/9/14,8:31,42-30.48N,141-43.76E,128,22.872,
513,2023/9/14,8:32,42-30.26N,141-44.13E,128,22.871,
514,2023/9/14,8:33,42-30.03N,141-44.51E,129,22.869,
515,2023/9/14,8:34,42-29.80N,141-44.87E,130,22.899,
516,2023/9/14,8:35,42-29.57N,141-45.25E,130,22.919,
517,2023/9/14,8:36,42-29.33N,141-45.63E,131,22.935,
518,2023/9/14,8:37,42-29.10N,141-45.98E,131,22.951,
519,2023/9/14,8:38,42-28.86N,141-46.35E,131,22.98,
520,2023/9/14,8:39,42-28.62N,141-46.71E,131,23.008,
521,2023/9/14,8:40,42-28.38N,141-47.07E,132,23.021,
522,2023/9/14,8:41,42-28.13N,141-47.44E,132,23.033,
523,2023/9/14,8:42,42-27.90N,141-47.79E,132,23.035,
524,2023/9/14,8:43,42-27.65N,141-48.16E,132,23.044,
525,2023/9/14,8:44,42-27.41N,141-48.53E,132,23.029,
526,2023/9/14,8:45,42-27.17N,141-48.88E,132,23.097,
527,2023/9/14,8:46,42-26.93N,141-49.23E,132,23.139,
528,2023/9/14,8:47,42-26.69N,141-49.59E,132,23.186,
529,2023/9/14,8:48,42-26.45N,141-49.96E,130,23.181,
530,2023/9/14,8:49,42-26.22N,141-50.34E,127,23.183,
531,2023/9/14,8:50,42-26.02N,141-50.73E,126,23.181,
532,2023/9/14,8:51,42-25.81N,141-51.10E,126,23.193,
533,2023/9/14,8:52,42-25.60N,141-51.48E,126,23.191,
534,2023/9/14,8:53,42-25.40N,141-51.85E,126,23.146,
535,2023/9/14,8:54,42-25.20N,141-52.21E,127,23.139,
536,2023/9/14,8:55,42-25.00N,141-52.57E,127,23.176,
537,2023/9/14,8:56,42-24.79N,141-52.94E,127,23.207,
538,2023/9/14,8:57,42-24.59N,141-53.29E,126,23.197,
539,2023/9/14,8:58,42-24.39N,141-53.66E,127,23.21,
540,2023/9/14,8:59,42-24.19N,141-54.01E,127,23.21,
541,2023/9/14,9:00,42-23.98N,141-54.38E,127,23.216,
542,2023/9/14,9:01,42-23.77N,141-54.75E,127,23.253,
543,2023/9/14,9:02,42-23.57N,141-55.10E,127,23.273,
544,2023/9/14,9:03,42-23.36N,141-55.47E,127,23.289,
545,2023/9/14,9:04,42-23.16N,141-55.82E,127,23.28,
546,2023/9/14,9:05,42-22.96N,141-56.18E,127,23.266,
547,2023/9/14,9:06,42-22.75N,141-56.55E,127,23.265,
548,2023/9/14,9:07,42-22.55N,141-56.90E,127,23.233,
549,2023/9/14,9:08,42-22.34N,141-57.27E,126,23.214,
550,2023/9/14,9:09,42-22.14N,141-57.62E,127,23.241,
551,2023/9/14,9:10,42-21.93N,141-57.99E,127,23.292,
552,2023/9/14,9:11,42-21.73N,141-58.35E,127,23.443,
553,2023/9/14,9:12,42-21.53N,141-58.71E,126,23.599,
554,2023/9/14,9:13,42-21.32N,141-59.09E,126,23.678,
555,2023/9/14,9:14,42-21.13N,141-59.44E,126,23.71,
556,2023/9/14,9:15,42-20.92N,141-59.81E,126,23.751,
557,2023/9/14,9:16,42-20.73N,142-00.17E,126,23.791,
558,2023/9/14,9:17,42-20.53N,142-00.55E,123,23.808,
559,2023/9/14,9:18,42-20.35N,142-00.93E,122,23.82,
560,2023/9/14,9:19,42-20.18N,142-01.30E,122,23.83,
561,2023/9/14,9:20,42-20.00N,142-01.70E,122,23.841,
562,2023/9/14,9:21,42-19.81N,142-02.10E,122,23.86,
563,2023/9/14,9:22,42-19.64N,142-02.46E,121,23.883,
564,2023/9/14,9:23,42-19.46N,142-02.85E,122,23.889,
565,2023/9/14,9:24,42-19.29N,142-03.23E,121,23.759,
566,2023/9/14,9:25,42-19.11N,142-03.61E,121,23.695,
567,2023/9/14,9:26,42-18.93N,142-04.01E,121,23.71,
568,2023/9/14,9:27,42-18.76N,142-04.40E,121,23.758,
569,2023/9/14,9:28,42-18.58N,142-04.78E,121,23.81,
570,2023/9/14,9:29,42-18.41N,142-05.15E,121,23.868,
571,2023/9/14,9:30,42-18.24N,142-05.53E,121,23.879,
572,2023/9/14,9:31,42-18.06N,142-05.92E,121,23.873,
573,2023/9/14,9:32,42-17.89N,142-06.30E,121,23.871,
574,2023/9/14,9:33,42-17.72N,142-06.69E,121,23.906,
575,2023/9/14,9:34,42-17.54N,142-07.08E,121,23.937,
576,2023/9/14,9:35,42-17.37N,142-07.45E,121,23.953,
577,2023/9/14,9:36,42-17.20N,142-07.84E,120,23.971,
578,2023/9/14,9:37,42-17.03N,142-08.22E,120,23.952,
579,2023/9/14,9:38,42-16.85N,142-08.61E,121,23.904,
580,2023/9/14,9:39,42-16.68N,142-09.00E,121,23.904,
581,2023/9/14,9:40,42-16.51N,142-09.36E,121,23.89,
582,2023/9/14,9:41,42-16.33N,142-09.76E,121,23.872,
583,2023/9/14,9:42,42-16.17N,142-10.12E,120,23.856,
584,2023/9/14,9:43,42-16.00N,142-10.51E,121,23.821,
585,2023/9/14,9:44,42-15.83N,142-10.89E,121,23.827,
586,2023/9/14,9:45,42-15.66N,142-11.25E,121,23.797,
587,2023/9/14,9:46,42-15.49N,142-11.64E,120,23.805,
588,2023/9/14,9:47,42-15.33N,142-12.00E,121,23.856,
589,2023/9/14,9:48,42-15.16N,142-12.38E,120,23.931,
590,2023/9/14,9:49,42-15.00N,142-12.75E,121,23.94,
591,2023/9/14,9:50,42-14.83N,142-13.12E,120,23.922,
592,2023/9/14,9:51,42-14.66N,142-13.50E,120,23.946,
593,2023/9/14,9:52,42-14.50N,142-13.87E,120,23.957,
594,2023/9/14,9:53,42-14.33N,142-14.25E,121,23.986,
595,2023/9/14,9:54,42-14.16N,142-14.63E,121,24,
596,2023/9/14,9:55,42-14.00N,142-14.99E,121,23.994,
597,2023/9/14,9:56,42-13.83N,142-15.37E,121,24.019,
598,2023/9/14,9:57,42-13.66N,142-15.74E,121,24.028,
599,2023/9/14,9:58,42-13.49N,142-16.11E,121,24.005,
600,2023/9/14,9:59,42-13.32N,142-16.48E,121,23.991,
601,2023/9/14,10:00,42-13.16N,142-16.84E,121,23.962,
602,2023/9/14,10:01,42-12.99N,142-17.22E,121,23.96,
603,2023/9/14,10:02,42-12.82N,142-17.59E,121,23.969,
604,2023/9/14,10:03,42-12.66N,142-17.95E,121,23.932,
605,2023/9/14,10:04,42-12.49N,142-18.33E,121,23.877,
606,2023/9/14,10:05,42-12.33N,142-18.68E,121,23.896,
607,2023/9/14,10:06,42-12.16N,142-19.05E,120,23.961,
608,2023/9/14,10:07,42-12.00N,142-19.41E,120,23.982,
609,2023/9/14,10:08,42-11.84N,142-19.78E,121,23.954,
610,2023/9/14,10:09,42-11.67N,142-20.16E,121,23.93,
611,2023/9/14,10:10,42-11.51N,142-20.51E,121,23.926,
612,2023/9/14,10:11,42-11.34N,142-20.88E,120,23.918,
613,2023/9/14,10:12,42-11.19N,142-21.24E,120,23.928,
614,2023/9/14,10:13,42-11.02N,142-21.61E,120,23.942,
615,2023/9/14,10:14,42-10.87N,142-21.98E,119,23.938,
616,2023/9/14,10:15,42-10.72N,142-22.35E,118,23.946,
617,2023/9/14,10:16,42-10.56N,142-22.73E,119,23.973,
618,2023/9/14,10:17,42-10.41N,142-23.10E,118,23.99,
619,2023/9/14,10:18,42-10.25N,142-23.49E,118,24.001,
620,2023/9/14,10:19,42-10.09N,142-23.88E,118,24.011,
621,2023/9/14,10:20,42-09.94N,142-24.24E,118,24.02,
622,2023/9/14,10:21,42-09.79N,142-24.62E,118,23.991,
623,2023/9/14,10:22,42-09.63N,142-24.99E,118,23.981,
624,2023/9/14,10:23,42-09.46N,142-25.39E,119,23.956,
625,2023/9/14,10:24,42-09.32N,142-25.75E,119,23.915,
626,2023/9/14,10:25,42-09.17N,142-26.13E,118,23.901,
627,2023/9/14,10:26,42-09.01N,142-26.52E,118,23.891,
628,2023/9/14,10:27,42-08.86N,142-26.89E,118,23.886,
629,2023/9/14,10:28,42-08.70N,142-27.27E,119,23.872,
630,2023/9/14,10:29,42-08.55N,142-27.64E,119,23.857,
631,2023/9/14,10:30,42-08.38N,142-28.02E,119,23.832,
632,2023/9/14,10:31,42-08.23N,142-28.41E,118,23.869,
633,2023/9/14,10:32,42-08.08N,142-28.77E,119,23.897,
634,2023/9/14,10:33,42-07.92N,142-29.15E,119,23.889,
635,2023/9/14,10:34,42-07.77N,142-29.52E,119,23.916,
636,2023/9/14,10:35,42-07.61N,142-29.91E,119,23.912,
637,2023/9/14,10:36,42-07.45N,142-30.28E,118,23.874,
638,2023/9/14,10:37,42-07.30N,142-30.65E,118,23.899,
639,2023/9/14,10:38,42-07.14N,142-31.04E,119,23.952,
640,2023/9/14,10:39,42-06.99N,142-31.41E,119,23.943,
641,2023/9/14,10:40,42-06.83N,142-31.79E,118,23.928,
642,2023/9/14,10:41,42-06.67N,142-32.18E,118,23.943,
643,2023/9/14,10:42,42-06.53N,142-32.53E,118,23.97,
644,2023/9/14,10:43,42-06.37N,142-32.93E,119,23.978,
645,2023/9/14,10:44,42-06.22N,142-33.29E,118,23.96,
646,2023/9/14,10:45,42-06.06N,142-33.66E,119,23.918,
647,2023/9/14,10:46,42-05.91N,142-34.04E,119,23.885,
648,2023/9/14,10:47,42-05.75N,142-34.41E,119,23.862,
649,2023/9/14,10:48,42-05.60N,142-34.79E,119,23.821,
650,2023/9/14,10:49,42-05.44N,142-35.16E,118,23.793,
651,2023/9/14,10:50,42-05.29N,142-35.54E,119,23.756,
652,2023/9/14,10:51,42-05.13N,142-35.92E,119,23.758,
653,2023/9/14,10:52,42-04.98N,142-36.29E,119,23.757,
654,2023/9/14,10:53,42-04.82N,142-36.67E,119,23.752,
655,2023/9/14,10:54,42-04.67N,142-37.03E,119,23.764,
656,2023/9/14,10:55,42-04.52N,142-37.41E,119,23.755,
657,2023/9/14,10:56,42-04.36N,142-37.79E,119,23.738,
658,2023/9/14,10:57,42-04.21N,142-38.15E,118,23.698,
659,2023/9/14,10:58,42-04.05N,142-38.53E,118,23.617,
660,2023/9/14,10:59,42-03.90N,142-38.90E,119,23.576,
661,2023/9/14,11:00,42-03.74N,142-39.28E,119,23.576,
662,2023/9/14,11:01,42-03.58N,142-39.67E,119,23.558,
663,2023/9/14,11:02,42-03.43N,142-40.02E,119,23.509,
664,2023/9/14,11:03,42-03.27N,142-40.41E,118,23.452,
665,2023/9/14,11:04,42-03.12N,142-40.77E,118,23.339,
666,2023/9/14,11:05,42-02.97N,142-41.14E,119,23.248,
667,2023/9/14,11:06,42-02.81N,142-41.53E,118,23.221,
668,2023/9/14,11:07,42-02.66N,142-41.90E,118,23.219,
669,2023/9/14,11:08,42-02.51N,142-42.27E,118,23.262,
670,2023/9/14,11:09,42-02.36N,142-42.65E,118,23.29,
671,2023/9/14,11:10,42-02.20N,142-43.03E,118,23.33,
672,2023/9/14,11:11,42-02.05N,142-43.41E,118,23.352,
673,2023/9/14,11:12,42-01.90N,142-43.79E,118,23.38,
674,2023/9/14,11:13,42-01.74N,142-44.18E,118,23.345,
675,2023/9/14,11:14,42-01.59N,142-44.54E,118,23.363,
676,2023/9/14,11:15,42-01.44N,142-44.93E,118,23.392,
677,2023/9/14,11:16,42-01.28N,142-45.30E,118,23.395,
678,2023/9/14,11:17,42-01.13N,142-45.68E,118,23.412,
679,2023/9/14,11:18,42-00.98N,142-46.05E,118,23.448,
680,2023/9/14,11:19,42-00.83N,142-46.43E,118,23.496,
681,2023/9/14,11:20,42-00.67N,142-46.82E,118,23.529,
682,2023/9/14,11:21,42-00.52N,142-47.20E,118,23.551,
683,2023/9/14,11:22,42-00.37N,142-47.57E,118,23.574,
684,2023/9/14,11:23,42-00.22N,142-47.95E,118,23.617,
685,2023/9/14,11:24,42-00.06N,142-48.33E,118,23.672,
686,2023/9/14,11:25,41-59.90N,142-48.72E,118,23.72,
687,2023/9/14,11:26,41-59.75N,142-49.10E,118,23.742,
688,2023/9/14,11:27,41-59.60N,142-49.48E,118,23.761,
689,2023/9/14,11:28,41-59.44N,142-49.86E,118,23.749,
690,2023/9/14,11:29,41-59.29N,142-50.24E,118,23.752,
691,2023/9/14,11:30,41-59.13N,142-50.63E,118,23.771,
692,2023/9/14,11:31,41-58.97N,142-51.02E,118,23.76,
693,2023/9/14,11:32,41-58.81N,142-51.41E,118,23.772,
694,2023/9/14,11:33,41-58.66N,142-51.78E,118,23.778,
695,2023/9/14,11:34,41-58.50N,142-52.17E,118,23.767,
696,2023/9/14,11:35,41-58.35N,142-52.55E,118,23.785,
697,2023/9/14,11:36,41-58.19N,142-52.94E,118,23.836,
698,2023/9/14,11:37,41-58.03N,142-53.32E,118,23.871,
699,2023/9/14,11:38,41-57.88N,142-53.71E,118,23.892,
700,2023/9/14,11:39,41-57.72N,142-54.11E,118,23.91,
701,2023/9/14,11:40,41-57.56N,142-54.48E,118,23.919,
702,2023/9/14,11:41,41-57.41N,142-54.87E,118,23.927,
703,2023/9/14,11:42,41-57.25N,142-55.27E,118,23.933,
704,2023/9/14,11:43,41-57.10N,142-55.64E,118,23.938,
705,2023/9/14,11:44,41-56.94N,142-56.04E,118,23.95,
706,2023/9/14,11:45,41-56.79N,142-56.41E,118,23.941,
707,2023/9/14,11:46,41-56.63N,142-56.81E,118,23.934,
708,2023/9/14,11:47,41-56.48N,142-57.18E,118,23.938,
709,2023/9/14,11:48,41-56.32N,142-57.57E,118,23.925,
710,2023/9/14,11:49,41-56.16N,142-57.96E,118,23.809,
711,2023/9/14,11:50,41-56.01N,142-58.34E,118,23.691,
712,2023/9/14,11:51,41-55.85N,142-58.74E,118,23.596,
713,2023/9/14,11:52,41-55.70N,142-59.11E,118,23.53,
714,2023/9/14,11:53,41-55.54N,142-59.51E,118,23.517,
715,2023/9/14,11:54,41-55.38N,142-59.90E,118,23.491,
716,2023/9/14,11:55,41-55.22N,143-00.29E,118,23.393,
717,2023/9/14,11:56,41-55.06N,143-00.67E,118,23.323,
718,2023/9/14,11:57,41-54.91N,143-01.06E,118,23.269,
719,2023/9/14,11:58,41-54.75N,143-01.45E,118,23.207,
720,2023/9/14,11:59,41-54.58N,143-01.85E,118,23.108,
721,2023/9/14,12:00,41-54.43N,143-02.23E,118,23.052,
722,2023/9/14,12:01,41-54.27N,143-02.62E,115,22.868,
723,2023/9/14,12:02,41-54.16N,143-03.01E,111,22.632,
724,2023/9/14,12:03,41-54.04N,143-03.41E,110,22.464,
725,2023/9/14,12:04,41-53.93N,143-03.82E,110,22.307,
726,2023/9/14,12:05,41-53.82N,143-04.21E,110,22.226,
727,2023/9/14,12:06,41-53.70N,143-04.62E,110,22.203,
728,2023/9/14,12:07,41-53.59N,143-05.00E,111,22.116,
729,2023/9/14,12:08,41-53.47N,143-05.40E,110,22.035,
730,2023/9/14,12:09,41-53.36N,143-05.80E,110,21.927,
731,2023/9/14,12:10,41-53.25N,143-06.18E,110,21.76,
732,2023/9/14,12:11,41-53.13N,143-06.60E,110,21.484,
733,2023/9/14,12:12,41-53.02N,143-06.97E,111,21.054,
734,2023/9/14,12:13,41-52.91N,143-07.37E,110,20.519,
735,2023/9/14,12:14,41-52.79N,143-07.77E,110,20.133,
736,2023/9/14,12:15,41-52.68N,143-08.17E,110,19.884,
737,2023/9/14,12:16,41-52.56N,143-08.59E,110,19.948,
738,2023/9/14,12:17,41-52.46N,143-08.97E,110,19.949,
739,2023/9/14,12:18,41-52.35N,143-09.38E,109,20.113,
740,2023/9/14,12:19,41-52.24N,143-09.78E,109,20.22,
741,2023/9/14,12:20,41-52.14N,143-10.17E,109,20.055,
742,2023/9/14,12:21,41-52.03N,143-10.57E,110,19.739,
743,2023/9/14,12:22,41-51.92N,143-10.96E,110,19.407,
744,2023/9/14,12:23,41-51.81N,143-11.36E,110,19.48,
745,2023/9/14,12:24,41-51.69N,143-11.77E,110,19.668,
746,2023/9/14,12:25,41-51.58N,143-12.14E,110,19.744,
747,2023/9/14,12:26,41-51.47N,143-12.55E,111,20.048,
748,2023/9/14,12:27,41-51.36N,143-12.91E,111,20.05,
749,2023/9/14,12:28,41-51.24N,143-13.30E,111,20.072,
750,2023/9/14,12:29,41-51.12N,143-13.69E,112,20.096,
751,2023/9/14,12:30,41-51.01N,143-14.06E,112,20.092,
752,2023/9/14,12:31,41-50.88N,143-14.46E,112,19.544,
753,2023/9/14,12:32,41-50.81N,143-14.82E,100,19.371,
754,2023/9/14,12:33,41-50.81N,143-15.21E,87,19.339,
755,2023/9/14,12:34,41-50.86N,143-15.59E,75,19.048,
756,2023/9/14,12:35,41-50.97N,143-15.94E,65,18.735,
757,2023/9/14,12:36,41-51.11N,143-16.29E,61,18.532,
758,2023/9/14,12:37,41-51.24N,143-16.62E,60,18.573,
759,2023/9/14,12:38,41-51.39N,143-16.96E,59,18.827,
760,2023/9/14,12:39,41-51.54N,143-17.30E,58,19.9,
761,2023/9/14,12:40,41-51.69N,143-17.63E,60,20.386,
762,2023/9/14,12:41,41-51.83N,143-17.97E,58,20.567,
763,2023/9/14,12:42,41-51.98N,143-18.30E,59,21.077,
764,2023/9/14,12:43,41-52.11N,143-18.64E,62,20.764,
765,2023/9/14,12:44,41-52.27N,143-18.98E,58,20.875,
766,2023/9/14,12:45,41-52.41N,143-19.29E,56,20.109,
767,2023/9/14,12:46,41-52.58N,143-19.62E,56,20.968,
768,2023/9/14,12:47,41-52.73N,143-19.94E,57,20.48,
769,2023/9/14,12:48,41-52.88N,143-20.26E,57,20.474,
770,2023/9/14,12:49,41-53.05N,143-20.58E,54,21.148,
771,2023/9/14,12:50,41-53.23N,143-20.86E,47,21.299,
772,2023/9/14,12:51,41-53.43N,143-21.16E,48,21.185,
773,2023/9/14,12:52,41-53.63N,143-21.43E,44,21.185,
774,2023/9/14,12:53,41-53.84N,143-21.69E,42,21.271,
775,2023/9/14,12:54,41-54.07N,143-21.95E,38,21.209,
776,2023/9/14,12:55,41-54.29N,143-22.17E,35,21.458,
777,2023/9/14,12:56,41-54.53N,143-22.40E,36,21.602,
778,2023/9/14,12:57,41-54.75N,143-22.63E,36,21.72,
779,2023/9/14,12:58,41-54.99N,143-22.86E,35,21.739,
780,2023/9/14,12:59,41-55.22N,143-23.08E,35,21.71,
781,2023/9/14,13:00,41-55.46N,143-23.29E,31,21.687,
782,2023/9/14,13:01,41-55.71N,143-23.49E,30,21.684,
783,2023/9/14,13:02,41-55.94N,143-23.70E,34,21.654,
784,2023/9/14,13:03,41-56.18N,143-23.92E,34,21.607,
785,2023/9/14,13:04,41-56.42N,143-24.13E,34,21.521,
786,2023/9/14,13:05,41-56.65N,143-24.35E,35,21.449,
787,2023/9/14,13:06,41-56.89N,143-24.57E,34,21.48,
788,2023/9/14,13:07,41-57.12N,143-24.78E,34,21.461,
789,2023/9/14,13:08,41-57.35N,143-24.99E,34,21.374,
790,2023/9/14,13:09,41-57.59N,143-25.22E,34,21.433,
791,2023/9/14,13:10,41-57.82N,143-25.43E,34,21.397,
792,2023/9/14,13:11,41-58.06N,143-25.64E,34,21.387,
793,2023/9/14,13:12,41-58.28N,143-25.86E,34,21.481,
794,2023/9/14,13:13,41-58.53N,143-26.07E,34,21.65,
795,2023/9/14,13:14,41-58.77N,143-26.30E,34,21.716,
796,2023/9/14,13:15,41-59.00N,143-26.51E,34,21.74,
797,2023/9/14,13:16,41-59.23N,143-26.72E,34,21.822,
798,2023/9/14,13:17,41-59.47N,143-26.94E,35,21.85,
799,2023/9/14,13:18,41-59.71N,143-27.17E,35,21.916,
800,2023/9/14,13:19,41-59.94N,143-27.38E,34,21.898,
801,2023/9/14,13:20,42-00.18N,143-27.60E,33,21.927,
802,2023/9/14,13:21,42-00.41N,143-27.81E,34,21.988,
803,2023/9/14,13:22,42-00.65N,143-28.03E,34,22.047,
804,2023/9/14,13:23,42-00.90N,143-28.25E,34,22.078,
805,2023/9/14,13:24,42-01.14N,143-28.48E,34,22.086,
806,2023/9/14,13:25,42-01.38N,143-28.69E,34,22.086,
807,2023/9/14,13:26,42-01.63N,143-28.92E,33,22.083,
808,2023/9/14,13:27,42-01.87N,143-29.14E,34,22.075,
809,2023/9/14,13:28,42-02.11N,143-29.36E,33,22.052,
810,2023/9/14,13:29,42-02.37N,143-29.59E,33,22.038,
811,2023/9/14,13:30,42-02.61N,143-29.81E,33,22.044,
812,2023/9/14,13:31,42-02.86N,143-30.03E,33,22.032,
813,2023/9/14,13:32,42-03.11N,143-30.26E,34,22.039,
814,2023/9/14,13:33,42-03.36N,143-30.49E,33,22.083,
815,2023/9/14,13:34,42-03.62N,143-30.71E,33,22.125,
816,2023/9/14,13:35,42-03.86N,143-30.93E,33,22.034,
817,2023/9/14,13:36,42-04.12N,143-31.16E,33,22.02,
818,2023/9/14,13:37,42-04.37N,143-31.38E,32,22.071,
819,2023/9/14,13:38,42-04.62N,143-31.60E,33,22.16,
820,2023/9/14,13:39,42-04.87N,143-31.83E,34,22.227,
821,2023/9/14,13:40,42-05.12N,143-32.06E,34,22.231,
822,2023/9/14,13:41,42-05.37N,143-32.29E,34,22.188,
823,2023/9/14,13:42,42-05.62N,143-32.52E,34,22.161,
824,2023/9/14,13:43,42-05.86N,143-32.74E,34,22.215,
825,2023/9/14,13:44,42-06.11N,143-32.98E,34,22.275,
826,2023/9/14,13:45,42-06.35N,143-33.20E,34,22.336,
827,2023/9/14,13:46,42-06.59N,143-33.43E,35,22.426,
828,2023/9/14,13:47,42-06.84N,143-33.66E,35,22.512,
829,2023/9/14,13:48,42-07.08N,143-33.89E,34,22.563,
830,2023/9/14,13:49,42-07.33N,143-34.13E,35,22.602,
831,2023/9/14,13:50,42-07.57N,143-34.36E,35,22.642,
832,2023/9/14,13:51,42-07.81N,143-34.59E,35,22.692,
833,2023/9/14,13:52,42-08.06N,143-34.83E,34,22.705,
834,2023/9/14,13:53,42-08.30N,143-35.05E,35,22.715,
835,2023/9/14,13:54,42-08.56N,143-35.29E,34,22.718,
836,2023/9/14,13:55,42-08.80N,143-35.52E,35,22.716,
837,2023/9/14,13:56,42-09.05N,143-35.76E,34,22.716,
838,2023/9/14,13:57,42-09.29N,143-35.99E,34,22.712,
839,2023/9/14,13:58,42-09.54N,143-36.21E,35,22.718,
840,2023/9/14,13:59,42-09.79N,143-36.45E,35,22.637,
841,2023/9/14,14:00,42-10.03N,143-36.68E,34,22.591,
842,2023/9/14,14:01,42-10.28N,143-36.91E,34,22.568,
843,2023/9/14,14:02,42-10.53N,143-37.14E,34,22.525,
844,2023/9/14,14:03,42-10.78N,143-37.37E,34,22.457,
845,2023/9/14,14:04,42-11.04N,143-37.61E,34,22.333,
846,2023/9/14,14:05,42-11.28N,143-37.83E,34,22.459,
847,2023/9/14,14:06,42-11.54N,143-38.07E,34,22.526,
848,2023/9/14,14:07,42-11.79N,143-38.30E,34,22.498,
849,2023/9/14,14:08,42-12.04N,143-38.53E,34,22.444,
850,2023/9/14,14:09,42-12.30N,143-38.76E,33,22.336,
851,2023/9/14,14:10,42-12.55N,143-38.99E,33,22.211,
852,2023/9/14,14:11,42-12.81N,143-39.22E,34,22.087,
853,2023/9/14,14:12,42-13.06N,143-39.46E,33,21.935,
854,2023/9/14,14:13,42-13.31N,143-39.68E,33,21.745,
855,2023/9/14,14:14,42-13.57N,143-39.92E,33,21.523,
856,2023/9/14,14:15,42-13.82N,143-40.14E,33,21.39,
857,2023/9/14,14:16,42-14.09N,143-40.39E,33,21.246,
858,2023/9/14,14:17,42-14.33N,143-40.61E,34,21.11,
859,2023/9/14,14:18,42-14.59N,143-40.84E,33,20.983,
860,2023/9/14,14:19,42-14.84N,143-41.07E,33,20.916,
861,2023/9/14,14:20,42-15.09N,143-41.30E,34,20.93,
862,2023/9/14,14:21,42-15.35N,143-41.53E,33,20.891,
863,2023/9/14,14:22,42-15.60N,143-41.76E,33,20.788,
864,2023/9/14,14:23,42-15.85N,143-41.99E,33,20.7,
865,2023/9/14,14:24,42-16.12N,143-42.21E,31,20.685,
866,2023/9/14,14:25,42-16.37N,143-42.42E,31,20.57,
867,2023/9/14,14:26,42-16.64N,143-42.64E,30,20.558,
868,2023/9/14,14:27,42-16.90N,143-42.85E,30,20.544,
869,2023/9/14,14:28,42-17.16N,143-43.06E,30,20.561,
870,2023/9/14,14:29,42-17.43N,143-43.28E,31,20.45,
871,2023/9/14,14:30,42-17.68N,143-43.49E,31,20.523,
872,2023/9/14,14:31,42-17.95N,143-43.70E,30,20.55,
873,2023/9/14,14:32,42-18.21N,143-43.92E,30,20.503,
874,2023/9/14,14:33,42-18.47N,143-44.12E,31,20.308,
875,2023/9/14,14:34,42-18.74N,143-44.35E,31,20.228,
876,2023/9/14,14:35,42-18.99N,143-44.55E,31,20.102,
877,2023/9/14,14:36,42-19.25N,143-44.77E,31,19.952,
878,2023/9/14,14:37,42-19.52N,143-44.98E,31,19.965,
879,2023/9/14,14:38,42-19.78N,143-45.20E,31,20.198,
880,2023/9/14,14:39,42-20.04N,143-45.41E,31,20.425,
881,2023/9/14,14:40,42-20.29N,143-45.61E,31,20.568,
882,2023/9/14,14:41,42-20.55N,143-45.82E,30,20.555,
883,2023/9/14,14:42,42-20.81N,143-46.03E,30,20.338,
884,2023/9/14,14:43,42-21.08N,143-46.25E,30,20.313,
885,2023/9/14,14:44,42-21.33N,143-46.45E,31,20.327,
886,2023/9/14,14:45,42-21.59N,143-46.66E,30,20.154,
887,2023/9/14,14:46,42-21.85N,143-46.87E,30,20.073,
888,2023/9/14,14:47,42-22.12N,143-47.08E,30,20.063,
889,2023/9/14,14:48,42-22.38N,143-47.29E,30,20.198,
890,2023/9/14,14:49,42-22.64N,143-47.50E,30,20.354,
891,2023/9/14,14:50,42-22.90N,143-47.70E,30,20.451,
892,2023/9/14,14:51,42-23.16N,143-47.91E,29,20.449,
893,2023/9/14,14:52,42-23.43N,143-48.11E,29,20.54,
894,2023/9/14,14:53,42-23.69N,143-48.32E,29,20.596,
895,2023/9/14,14:54,42-23.97N,143-48.53E,30,20.519,
896,2023/9/14,14:55,42-24.21N,143-48.73E,30,20.398,
897,2023/9/14,14:56,42-24.48N,143-48.93E,29,20.116,
898,2023/9/14,14:57,42-24.75N,143-49.14E,29,20.087,
899,2023/9/14,14:58,42-25.01N,143-49.34E,29,20.12,
900,2023/9/14,14:59,42-25.27N,143-49.54E,29,20.133,
901,2023/9/14,15:00,42-25.54N,143-49.75E,29,20.112,
902,2023/9/14,15:01,42-25.79N,143-49.94E,29,19.96,
903,2023/9/14,15:02,42-26.06N,143-50.15E,29,19.862,
904,2023/9/14,15:03,42-26.33N,143-50.36E,29,19.819,
905,2023/9/14,15:04,42-26.59N,143-50.56E,29,19.755,
906,2023/9/14,15:05,42-26.85N,143-50.76E,29,19.963,
907,2023/9/14,15:06,42-27.12N,143-50.96E,29,20.231,
908,2023/9/14,15:07,42-27.38N,143-51.17E,29,20.425,
909,2023/9/14,15:08,42-27.65N,143-51.37E,29,20.386,
910,2023/9/14,15:09,42-27.92N,143-51.57E,29,20.578,
911,2023/9/14,15:10,42-28.18N,143-51.77E,29,20.677,
912,2023/9/14,15:11,42-28.44N,143-51.98E,29,20.76,
913,2023/9/14,15:12,42-28.71N,143-52.18E,29,20.819,
914,2023/9/14,15:13,42-28.97N,143-52.38E,30,20.897,
915,2023/9/14,15:14,42-29.24N,143-52.60E,29,20.932,
916,2023/9/14,15:15,42-29.49N,143-52.79E,30,21.025,
917,2023/9/14,15:16,42-29.76N,143-53.01E,29,21.093,
918,2023/9/14,15:17,42-30.03N,143-53.21E,29,21.17,
919,2023/9/14,15:18,42-30.29N,143-53.41E,29,21.174,
920,2023/9/14,15:19,42-30.57N,143-53.63E,29,21.182,
921,2023/9/14,15:20,42-30.83N,143-53.83E,29,21.226,
922,2023/9/14,15:21,42-31.14N,143-54.07E,30,21.259,
923,2023/9/14,15:22,42-31.42N,143-54.28E,29,21.255,
924,2023/9/14,15:23,42-31.69N,143-54.50E,29,21.245,
925,2023/9/14,15:24,42-31.97N,143-54.71E,29,21.213,
926,2023/9/14,15:25,42-32.19N,143-54.88E,29,21.133,
927,2023/9/14,15:26,42-32.47N,143-55.09E,29,21.114,
928,2023/9/14,15:27,42-32.74N,143-55.30E,29,21.098,
929,2023/9/14,15:28,42-33.01N,143-55.51E,29,21.08,
930,2023/9/14,15:29,42-33.33N,143-55.76E,29,21.074,
931,2023/9/14,15:30,42-33.60N,143-55.96E,29,21.086,
932,2023/9/14,15:31,42-33.87N,143-56.18E,29,21.115,
933,2023/9/14,15:32,42-34.15N,143-56.39E,29,21.134,
934,2023/9/14,15:33,42-34.42N,143-56.60E,29,21.146,